�������l�o���
Date,Time,MP-1(��Sv/h),MP-2(��Sv/h),MP-3(��Sv/h),MP-4(��Sv/h),MP-5(��Sv/h),MP-6(��Sv/h),MP-7(��Sv/h),MP-8(��Sv/h),����,����(m/s),���J
2020/01/27,00:00,0.701,1.003,0.660,1.259,0.885,0.399,0.702,0.668,��,3.5,��
2020/01/27,00:10,0.699,1.005,0.662,1.259,0.884,0.399,0.703,0.668,��,3.8,��
2020/01/27,00:20,0.701,1.005,0.662,1.261,0.886,0.400,0.702,0.669,���쐼,2.3,��
2020/01/27,00:30,0.701,1.005,0.662,1.261,0.885,0.400,0.705,0.668,���쐼,3.5,��
2020/01/27,00:40,0.701,1.005,0.662,1.258,0.886,0.399,0.703,0.669,���쐼,3.4,��
2020/01/27,00:50,0.701,1.004,0.660,1.260,0.888,0.400,0.703,0.669,���쐼,2.5,��
2020/01/27,01:00,0.701,1.005,0.661,1.259,0.885,0.399,0.702,0.669,��,2.0,��
2020/01/27,01:10,0.699,1.007,0.662,1.260,0.884,0.399,0.701,0.669,��,2.4,��
2020/01/27,01:20,0.698,1.001,0.661,1.260,0.884,0.400,0.702,0.668,��,1.9,��
2020/01/27,01:30,0.700,1.004,0.661,1.261,0.884,0.399,0.704,0.668,���k��,2.3,��
2020/01/27,01:40,0.701,1.003,0.661,1.262,0.885,0.399,0.702,0.667,���k��,2.5,��
2020/01/27,01:50,0.700,1.002,0.661,1.260,0.882,0.398,0.702,0.668,���k��,2.3,��
2020/01/27,02:00,0.698,1.003,0.661,1.260,0.883,0.398,0.703,0.667,�k��,3.0,��
2020/01/27,02:10,0.700,1.004,0.660,1.260,0.883,0.399,0.702,0.669,���k��,2.4,��
2020/01/27,02:20,0.700,1.004,0.660,1.260,0.884,0.398,0.703,0.669,���k��,2.8,��
2020/01/27,02:30,0.699,1.003,0.661,1.259,0.883,0.399,0.702,0.668,���k��,4.2,��
2020/01/27,02:40,0.700,1.002,0.661,1.260,0.881,0.398,0.702,0.669,���k��,3.4,��
2020/01/27,02:50,0.698,1.003,0.660,1.260,0.881,0.399,0.704,0.668,���k��,3.8,��
2020/01/27,03:00,0.699,1.003,0.660,1.258,0.883,0.399,0.702,0.666,���k��,4.2,��
2020/01/27,03:10,0.699,1.002,0.661,1.258,0.883,0.399,0.701,0.669,���k��,2.9,��
2020/01/27,03:20,0.700,1.005,0.661,1.259,0.880,0.398,0.702,0.669,�k��,3.3,��
2020/01/27,03:30,0.699,1.003,0.661,1.260,0.884,0.400,0.701,0.669,�k��,3.1,��
2020/01/27,03:40,0.698,1.003,0.660,1.258,0.883,0.397,0.704,0.668,�k��,3.1,��
2020/01/27,03:50,0.698,1.005,0.661,1.260,0.884,0.397,0.702,0.666,�k�k��,2.1,��
2020/01/27,04:00,0.700,1.002,0.660,1.260,0.883,0.399,0.701,0.668,�k�k��,2.2,��
2020/01/27,04:10,0.697,1.004,0.660,1.260,0.883,0.398,0.701,0.666,�k�k��,1.3,��
2020/01/27,04:20,0.697,1.004,0.660,1.260,0.884,0.399,0.702,0.670,�k�k��,0.6,��
2020/01/27,04:30,0.699,1.001,0.660,1.260,0.882,0.397,0.702,0.668,�k�k��,1.5,��
2020/01/27,04:40,0.698,1.004,0.660,1.259,0.882,0.399,0.701,0.669,�k,1.8,��
2020/01/27,04:50,0.698,1.002,0.659,1.259,0.883,0.398,0.702,0.669,�k�k��,2.6,��
2020/01/27,05:00,0.699,1.003,0.660,1.260,0.882,0.398,0.703,0.669,�k��,1.9,��
2020/01/27,05:10,0.699,1.001,0.660,1.260,0.884,0.397,0.702,0.667,�k��,1.3,��
2020/01/27,05:20,0.698,1.003,0.660,1.259,0.883,0.398,0.701,0.668,�k��,2.4,��
2020/01/27,05:30,0.700,1.004,0.659,1.258,0.881,0.398,0.701,0.668,�k�k��,2.5,��
2020/01/27,05:40,0.699,1.002,0.660,1.261,0.882,0.398,0.702,0.669,�k�k��,2.5,��
2020/01/27,05:50,0.698,1.003,0.659,1.260,0.883,0.399,0.702,0.668,�k�k��,2.2,��
2020/01/27,06:00,0.698,1.001,0.660,1.258,0.882,0.399,0.703,0.669,�k��,2.0,��
2020/01/27,06:10,0.698,1.003,0.660,1.260,0.883,0.397,0.701,0.668,�k��,2.1,��
2020/01/27,06:20,0.698,1.001,0.659,1.259,0.880,0.397,0.701,0.668,�k��,2.5,��
2020/01/27,06:30,0.698,1.001,0.660,1.257,0.882,0.399,0.703,0.668,�k��,2.3,��
2020/01/27,06:40,0.698,1.001,0.660,1.258,0.880,0.397,0.702,0.667,�k��,2.5,��
2020/01/27,06:50,0.699,1.003,0.661,1.257,0.881,0.399,0.701,0.670,�k��,2.0,��
2020/01/27,07:00,0.698,1.002,0.660,1.259,0.881,0.399,0.701,0.670,�k��,2.7,��
2020/01/27,07:10,0.697,1.003,0.660,1.259,0.881,0.397,0.702,0.669,�k��,2.8,��
2020/01/27,07:20,0.698,1.003,0.660,1.259,0.882,0.398,0.703,0.668,�k��,3.0,��
2020/01/27,07:30,0.699,1.000,0.659,1.260,0.882,0.398,0.703,0.669,�k��,3.0,��
2020/01/27,07:40,0.699,1.001,0.659,1.258,0.879,0.397,0.705,0.670,�k��,3.8,��
2020/01/27,07:50,0.698,1.002,0.659,1.260,0.881,0.397,0.703,0.667,�k�k��,3.9,��
2020/01/27,08:00,0.697,1.001,0.658,1.258,0.880,0.397,0.704,0.669,�k�k��,4.2,��
2020/01/27,08:10,0.698,1.004,0.660,1.261,0.882,0.396,0.703,0.669,�k�k��,5.0,��
2020/01/27,08:20,0.699,1.000,0.659,1.260,0.882,0.398,0.704,0.670,�k�k��,6.4,��
2020/01/27,08:30,0.698,1.002,0.659,1.261,0.883,0.398,0.701,0.669,�k�k��,5.6,��
2020/01/27,08:40,0.699,1.002,0.660,1.260,0.882,0.398,0.697,0.668,�k��,5.5,��
2020/01/27,08:50,0.698,1.003,0.659,1.259,0.882,0.398,0.699,0.670,�k��,4.9,��
2020/01/27,09:00,0.701,0.998,0.658,1.259,0.883,0.398,0.697,0.669,�k��,5.0,��
2020/01/27,09:10,0.701,0.999,0.658,1.260,0.881,0.398,0.697,0.668,�k��,4.6,��
2020/01/27,09:20,0.701,0.999,0.659,1.258,0.883,0.397,0.698,0.671,�k��,4.7,��
2020/01/27,09:30,0.700,0.996,0.656,1.258,0.883,0.399,0.698,0.669,�k�k��,4.9,��
2020/01/27,09:40,0.700,0.999,0.656,1.261,0.882,0.398,0.697,0.669,�k�k��,4.3,��
2020/01/27,09:50,0.699,0.998,0.658,1.261,0.882,0.398,0.698,0.669,�k�k��,4.9,��
2020/01/27,10:00,0.700,1.000,0.658,1.262,0.885,0.399,0.696,0.669,�k�k��,4.9,��
2020/01/27,10:10,0.699,1.003,0.660,1.260,0.882,0.399,0.698,0.668,�k�k��,4.1,��
2020/01/27,10:20,0.700,0.999,0.661,1.262,0.884,0.400,0.696,0.670,�k�k��,4.5,��
2020/01/27,10:30,0.701,1.000,0.662,1.260,0.883,0.398,0.697,0.669,�k�k��,3.8,��
2020/01/27,10:40,0.699,1.001,0.660,1.259,0.885,0.398,0.696,0.669,�k�k��,5.8,��
2020/01/27,10:50,0.702,1.003,0.661,1.262,0.884,0.399,0.697,0.670,�k�k��,5.8,��
2020/01/27,11:00,0.702,1.000,0.661,1.261,0.884,0.398,0.696,0.670,�k�k��,4.9,��
2020/01/27,11:10,0.701,1.001,0.661,1.261,0.884,0.400,0.696,0.668,�k�k��,2.9,��
2020/01/27,11:20,0.701,0.999,0.660,1.261,0.886,0.399,0.696,0.669,�k��,2.0,��
2020/01/27,11:30,0.701,1.001,0.658,1.262,0.885,0.399,0.698,0.669,�k�k��,2.2,��
2020/01/27,11:40,0.701,1.001,0.661,1.263,0.885,0.398,0.697,0.670,�k�k��,2.4,��
2020/01/27,11:50,0.702,1.004,0.660,1.262,0.887,0.399,0.696,0.670,�k,3.0,��
2020/01/27,12:00,0.702,1.000,0.661,1.260,0.886,0.399,0.696,0.672,�k�k��,2.8,��
2020/01/27,12:10,0.701,1.003,0.661,1.262,0.887,0.399,0.698,0.669,�k�k��,3.3,��
2020/01/27,12:20,0.703,1.003,0.662,1.262,0.888,0.400,0.698,0.668,�k�k��,3.5,��
2020/01/27,12:30,0.702,1.004,0.663,1.261,0.887,0.399,0.699,0.668,�k�k��,3.4,��
2020/01/27,12:40,0.702,1.006,0.663,1.263,0.889,0.397,0.699,0.669,�k��,3.0,��
2020/01/27,12:50,0.703,1.002,0.664,1.264,0.886,0.399,0.698,0.669,�k�k��,2.9,��
2020/01/27,13:00,0.700,1.005,0.662,1.263,0.887,0.400,0.699,0.670,�k�k��,3.1,��
2020/01/27,13:10,0.702,1.004,0.661,1.262,0.889,0.399,0.698,0.671,�k�k��,3.8,��
2020/01/27,13:20,0.702,1.003,0.664,1.261,0.887,0.399,0.698,0.670,�k�k��,3.1,��
2020/01/27,13:30,0.703,1.003,0.662,1.264,0.886,0.399,0.696,0.669,�k��,3.3,��
2020/01/27,13:40,0.702,1.005,0.664,1.262,0.888,0.398,0.696,0.669,�k��,3.0,��
2020/01/27,13:50,0.702,1.005,0.662,1.262,0.887,0.400,0.697,0.670,���k��,2.9,��
2020/01/27,14:00,0.704,1.002,0.663,1.262,0.887,0.401,0.697,0.670,�k�k��,2.3,��
2020/01/27,14:10,0.704,1.003,0.662,1.262,0.888,0.400,0.697,0.670,�k�k��,2.5,��
2020/01/27,14:20,0.702,1.005,0.664,1.261,0.887,0.399,0.696,0.670,�k�k��,2.3,��
2020/01/27,14:30,0.701,1.003,0.662,1.259,0.885,0.400,0.697,0.668,�k�k��,2.3,��
2020/01/27,14:40,0.701,1.006,0.663,1.260,0.887,0.399,0.697,0.671,�k�k��,3.0,��
2020/01/27,14:50,0.700,1.004,0.661,1.262,0.885,0.400,0.697,0.670,�k�k��,3.2,��
2020/01/27,15:00,0.701,1.002,0.661,1.261,0.888,0.399,0.697,0.668,�k,3.2,��
2020/01/27,15:10,0.699,1.004,0.662,1.263,0.886,0.401,0.697,0.669,�k,3.6,��
2020/01/27,15:20,0.700,1.004,0.665,1.262,0.888,0.399,0.696,0.669,�k�k��,2.9,��
2020/01/27,15:30,0.703,1.003,0.661,1.260,0.887,0.400,0.701,0.671,�k�k��,2.8,��
2020/01/27,15:40,0.701,1.003,0.662,1.263,0.885,0.400,0.703,0.669,�k�k��,3.4,��
2020/01/27,15:50,0.701,1.005,0.663,1.264,0.887,0.400,0.705,0.670,�k�k��,3.5,��
2020/01/27,16:00,0.700,1.005,0.663,1.264,0.887,0.401,0.703,0.671,�k�k��,3.0,��
2020/01/27,16:10,0.701,1.003,0.661,1.263,0.887,0.401,0.703,0.670,�k�k��,2.9,��
2020/01/27,16:20,0.702,1.004,0.662,1.261,0.887,0.402,0.704,0.669,�k�k��,2.7,��
2020/01/27,16:30,0.701,1.006,0.662,1.262,0.888,0.399,0.704,0.670,�k,3.1,��
2020/01/27,16:40,0.702,1.007,0.664,1.262,0.886,0.400,0.704,0.671,�k,3.8,��
2020/01/27,16:50,0.702,1.006,0.662,1.261,0.886,0.401,0.704,0.670,�k�k��,2.7,��
2020/01/27,17:00,0.702,1.008,0.664,1.262,0.888,0.401,0.705,0.668,�k,2.2,��
2020/01/27,17:10,0.702,1.007,0.662,1.262,0.886,0.401,0.704,0.669,�k��,1.1,��
2020/01/27,17:20,0.702,1.006,0.662,1.262,0.886,0.400,0.704,0.670,�k,1.1,��
2020/01/27,17:30,0.703,1.007,0.665,1.261,0.885,0.400,0.705,0.669,�k�k��,1.8,��
2020/01/27,17:40,0.702,1.007,0.662,1.263,0.886,0.400,0.703,0.668,�k,2.1,��
2020/01/27,17:50,0.701,1.007,0.664,1.263,0.887,0.400,0.703,0.670,�k��,2.4,��
2020/01/27,18:00,0.701,1.008,0.664,1.263,0.889,0.399,0.704,0.670,�k��,2.2,��
2020/01/27,18:10,0.701,1.008,0.663,1.265,0.885,0.400,0.703,0.667,�k��,2.6,��
2020/01/27,18:20,0.701,1.008,0.663,1.262,0.888,0.398,0.703,0.670,�k��,2.8,��
2020/01/27,18:30,0.702,1.007,0.663,1.261,0.889,0.398,0.705,0.670,�k��,2.9,��
2020/01/27,18:40,0.702,1.008,0.663,1.262,0.888,0.400,0.705,0.669,�k��,2.8,��
2020/01/27,18:50,0.701,1.008,0.665,1.263,0.888,0.400,0.706,0.669,�k�k��,3.0,��
2020/01/27,19:00,0.703,1.008,0.664,1.264,0.886,0.400,0.706,0.670,�k�k��,2.8,��
2020/01/27,19:10,0.700,1.008,0.662,1.263,0.888,0.398,0.704,0.670,�k�k��,2.6,��
2020/01/27,19:20,0.702,1.009,0.665,1.262,0.886,0.401,0.705,0.668,�k�k��,2.8,��
2020/01/27,19:30,0.704,1.007,0.662,1.263,0.886,0.399,0.704,0.671,�k�k��,3.3,��
2020/01/27,19:40,0.700,1.007,0.664,1.261,0.888,0.401,0.705,0.670,�k�k��,3.1,��
2020/01/27,19:50,0.702,1.008,0.665,1.263,0.888,0.400,0.704,0.670,�k�k��,3.5,��
2020/01/27,20:00,0.701,1.007,0.664,1.261,0.888,0.399,0.704,0.670,�k,3.0,��
2020/01/27,20:10,0.701,1.010,0.664,1.262,0.886,0.400,0.705,0.671,�k,3.2,��
2020/01/27,20:20,0.702,1.006,0.664,1.262,0.889,0.401,0.705,0.669,�k,2.7,��
2020/01/27,20:30,0.702,1.007,0.665,1.264,0.889,0.400,0.705,0.670,�k,2.4,��
2020/01/27,20:40,0.702,1.008,0.663,1.266,0.888,0.400,0.704,0.668,�k,2.5,��
2020/01/27,20:50,0.702,1.009,0.664,1.263,0.889,0.399,0.704,0.671,�k,2.9,��
2020/01/27,21:00,0.702,1.007,0.664,1.262,0.887,0.400,0.705,0.669,�k�k��,2.4,��
2020/01/27,21:10,0.704,1.007,0.663,1.265,0.887,0.399,0.705,0.670,�k�k��,3.0,��
2020/01/27,21:20,0.701,1.008,0.664,1.264,0.889,0.400,0.704,0.670,�k,3.0,��
2020/01/27,21:30,0.702,1.007,0.664,1.262,0.889,0.400,0.706,0.670,�k,3.3,��
2020/01/27,21:40,0.702,1.008,0.663,1.263,0.886,0.400,0.704,0.671,�k�k��,2.5,��
2020/01/27,21:50,0.701,1.008,0.663,1.263,0.887,0.401,0.705,0.671,�k�k��,2.8,��
2020/01/27,22:00,0.702,1.008,0.663,1.263,0.886,0.401,0.704,0.670,���k��,2.9,��
2020/01/27,22:10,0.704,1.006,0.664,1.264,0.888,0.401,0.705,0.668,���k��,3.1,��
2020/01/27,22:20,0.703,1.008,0.665,1.261,0.889,0.400,0.705,0.672,���k��,4.2,��
2020/01/27,22:30,0.704,1.007,0.664,1.265,0.887,0.400,0.706,0.670,���k��,3.5,��
2020/01/27,22:40,0.704,1.008,0.663,1.262,0.888,0.401,0.706,0.668,���k��,2.4,��
2020/01/27,22:50,0.703,1.008,0.663,1.265,0.887,0.400,0.702,0.671,���k��,3.8,��
2020/01/27,23:00,0.703,1.008,0.663,1.264,0.890,0.400,0.705,0.671,���k��,5.5,��
2020/01/27,23:10,0.702,1.006,0.663,1.261,0.888,0.400,0.705,0.670,�k��,3.2,��
2020/01/27,23:20,0.704,1.008,0.665,1.264,0.888,0.401,0.704,0.670,�k��,3.8,��
2020/01/27,23:30,0.702,1.008,0.663,1.265,0.888,0.401,0.707,0.670,���k��,4.7,��
2020/01/27,23:40,0.703,1.008,0.665,1.262,0.888,0.400,0.704,0.669,�k��,4.3,��
2020/01/27,23:50,0.703,1.008,0.664,1.266,0.887,0.402,0.707,0.671,���k��,4.3,��
